APRIZESAT 2 1 28366U 04025A 25137.48072968 .00000217 00000-0 80872-4 0 9997 2 28366 98.0771 321.6094 0106075 5.6313 354.6041 14.37788553 94772 SAUDICOMSAT 1 1 28369U 04025D 25137.45634470 .00000570 00000-0 14283-3 0 9993 2 28369 98.5686 132.1595 0032920 153.4164 206.8729 14.55004475106576 SAUDICOMSAT 2 1 28370U 04025E 25137.45903260 .00000579 00000-0 16060-3 0 9995 2 28370 98.6589 133.6604 0056277 19.2406 341.0894 14.49587110102764 APRIZESAT 1 1 28372U 04025G 25137.50424953 .00000387 00000-0 10806-3 0 9999 2 28372 98.6229 132.6383 0043526 278.3944 81.2318 14.51439908104500 NANOSAT(1) 1 28493U 04049B 25137.33078855 .00001606 00000-0 22539-3 0 9997 2 28493 98.1768 260.9923 0005241 118.8975 241.2762 14.78880808 96910 SAUDICOMSAT 7 1 31119U 07012C 25137.37676009 .00001090 00000-0 20680-3 0 9990 2 31119 98.3260 99.9519 0056478 358.5354 1.5675 14.65345894964451 SAUDICOMSAT 6 1 31121U 07012E 25137.42558042 .00000855 00000-0 17469-3 0 9994 2 31121 98.3567 94.1681 0073843 118.6324 242.2329 14.61836730962344 SAUDICOMSAT 5 1 31124U 07012H 25137.62040437 .00001015 00000-0 18630-3 0 9993 2 31124 98.2971 101.0406 0046765 291.0923 68.5285 14.67334319965561 SAUDICOMSAT 3 1 31125U 07012J 25137.42789760 .00001061 00000-0 18487-3 0 9992 2 31125 98.2635 101.4699 0038771 221.8948 137.9289 14.69726422966673 SAUDICOMSAT 4 1 31127U 07012L 25137.33010822 .00001077 00000-0 21013-3 0 9996 2 31127 98.3460 98.3954 0065481 55.9562 304.7834 14.63754763963452 APRIZESAT 4 1 35684U 09041D 25137.11269406 .00000922 00000-0 11872-3 0 9992 2 35684 98.1864 198.7143 0044518 163.1289 197.1416 14.82984003852642 APRIZESAT 3 1 35686U 09041F 25137.62460801 .00001883 00000-0 17432-3 0 9997 2 35686 98.1517 268.8327 0062720 292.6949 66.7647 14.94392148857264 AISSAT 1 1 36797U 10035C 25137.62052756 .00003688 00000-0 34314-3 0 9995 2 36797 98.1381 17.6311 0007740 290.1730 69.8657 14.94961771805073